[[{"header":{"parameterUnit":"m.s-1","parameterCategory":1,"la1":30.2992,"la2":30.254,"lo1":-89.0895,"lo2":-89.0443,"dy":0.0025,"dx":0.0025,"nx":19,"ny":19,"refTime":"2026-03-24T21:00:00:Z","depth":0,"parameterNumber":2,"parameterNumberName":"U-component_of_WINDS"},"data":[0,0,0,-2.8453,-2.8455,-2.8526,-2.8526,-2.8628,-2.8629,0,0,0,0,0,0,0,0,0,0,0,-2.8436,-2.8437,-2.8453,-2.8455,-2.8526,-2.8526,-2.8627,-2.8629,0,0,0,0,0,0,0,0,0,0,0,-2.8436,-2.8436,-2.8437,-2.8455,-2.8526,-2.8526,-2.8627,-2.857,0,0,0,0,0,0,0,0,0,0,-2.85,-2.8487,-2.8436,-2.8438,-2.8456,-2.8526,-2.8526,-2.8567,-2.8574,-2.8599,0,-2.8621,0,-2.8627,-2.8636,-2.8636,0,0,0,-2.8452,-2.8481,-2.8497,-2.8438,-2.8456,-2.8525,-2.8493,-2.8571,-2.8578,-2.8608,-2.8622,-2.8626,-2.8628,-2.8637,-2.8637,-2.879,-2.8791,0,0,-2.8448,-2.8451,-2.8492,-2.8502,-2.8489,-2.8491,-2.8495,-2.8575,-2.8592,-2.8623,-2.8628,-2.863,-2.8637,-2.8638,-2.8789,-2.879,0,0,0,-2.8439,-2.8448,-2.8462,-2.8498,-2.851,-2.8493,-2.8498,-2.8588,-2.8592,-2.8629,-2.8631,-2.8638,-2.8639,-2.8788,-2.879,-2.8832,0,0,0,-2.8436,-2.8443,-2.846,-2.8463,-2.8509,-2.8549,-2.8509,-2.8587,-2.8596,-2.8631,-2.8638,-2.864,-2.8787,-2.8789,-2.8829,-2.8851,0,0,0,-2.843,-2.8442,-2.8453,-2.8463,-2.8493,-2.8548,-2.8557,-2.8588,-2.8597,-2.8636,-2.8641,-2.8787,-2.8789,-2.8826,-2.8846,-2.8891,0,0,0,-2.8424,-2.849,-2.8454,-2.8529,-2.8493,-2.8574,-2.8556,-2.8617,-2.8656,-2.8639,-2.8788,-2.879,-2.8825,-2.8843,-2.8888,-2.8928,-2.8945,0,0,-2.8508,-2.85,-2.8544,-2.8514,-2.8602,-2.8563,-2.8659,-2.8692,-2.8695,-2.8759,-2.8763,-2.883,-2.8846,-2.8891,-2.9046,-2.9059,0,0,0,-2.8572,-2.8603,-2.8626,-2.8663,-2.8691,-2.8718,-2.8737,-2.875,-2.8805,-2.8728,-2.886,-2.8869,-2.8896,-2.8914,-2.8926,-2.8948,-2.8799,-2.8799,-2.8799,-2.8691,-2.8692,-2.8765,-2.8775,-2.8813,-2.8834,-2.8865,-2.8887,-2.8876,-2.8909,-2.8926,-2.902,-2.9042,-2.905,-2.9074,-2.8949,-2.895,-2.895,-2.895,-2.8813,-2.8857,-2.8845,-2.8911,-2.8913,-2.897,-2.8996,-2.8987,-2.9042,-2.9005,-2.9029,-2.8986,-2.9065,-2.9086,-2.8953,-2.8952,-2.8952,-2.8952,-2.8952,-2.8888,-2.8909,-2.8926,-2.8983,-2.9028,-2.9038,-2.9092,-2.9093,-2.9094,-2.9118,-2.9137,-2.9136,-2.9134,-2.9128,-2.9128,-2.9128,-2.9128,-2.9129,-2.9129,-2.8958,-2.8976,-2.902,-2.9059,-2.9085,-2.912,-2.9148,-2.9175,-2.9205,-2.9201,-2.9201,-2.9188,-2.9074,-2.9044,-2.9134,-2.9133,-2.9132,-2.9132,-2.9132,-2.9075,-2.905,-2.9118,-2.9144,-2.9193,-2.9239,-2.9242,-2.9298,-2.9321,-2.9348,-2.9333,-2.9249,-2.924,-2.9231,-2.9205,-2.9332,-2.9332,-2.9332,-2.9332,-2.9137,-2.9134,-2.9205,-2.9248,-2.9291,-2.9302,-2.9383,-2.9408,-2.9429,-2.9445,-2.9428,-2.9396,-2.9387,-2.9384,-2.9371,-2.9348,-2.9507,-2.9508,-2.9508,-2.9208,-2.9211,-2.9276,-2.9297,-2.9337,-2.9372,-2.9449,-2.9502,-2.9522,-2.9515,-2.9457,-2.9449,-2.9398,-2.9382,-2.9367,-2.9348,-2.9305,0,0]},{"header":{"parameterUnit":"m.s-1","parameterCategory":1,"la1":30.2992,"la2":30.254,"lo1":-89.0895,"lo2":-89.0443,"dy":0.0025,"dx":0.0025,"nx":19,"ny":19,"refTime":"2026-03-24T21:00:00:Z","depth":0,"parameterNumber":3,"parameterNumberName":"V-component_of_WINDS"},"data":[0,0,0,3.1279,3.1278,3.124,3.124,3.1169,3.1168,0,0,0,0,0,0,0,0,0,0,0,3.1278,3.1277,3.1279,3.1277,3.124,3.124,3.1169,3.1168,0,0,0,0,0,0,0,0,0,0,0,3.1278,3.1277,3.1276,3.1277,3.124,3.124,3.117,3.1205,0,0,0,0,0,0,0,0,0,0,3.1245,3.1234,3.1278,3.1276,3.1277,3.124,3.124,3.1207,3.1203,3.1177,0,3.1153,0,3.116,3.1162,3.1162,0,0,0,3.1285,3.1237,3.1238,3.1276,3.1277,3.124,3.1259,3.1205,3.12,3.1171,3.1153,3.1151,3.1159,3.1162,3.1161,3.0995,3.0994,0,0,3.1287,3.1264,3.1242,3.1235,3.1243,3.126,3.1258,3.1202,3.1179,3.1152,3.1149,3.1158,3.1161,3.1161,3.0996,3.0994,0,0,0,3.1288,3.1265,3.1268,3.1237,3.1233,3.1259,3.1256,3.1182,3.1185,3.1149,3.1157,3.1161,3.116,3.0997,3.0995,3.0918,0,0,0,3.1289,3.1266,3.1269,3.1254,3.1233,3.1207,3.1237,3.1189,3.1183,3.1157,3.1161,3.1159,3.0998,3.0996,3.0923,3.0884,0,0,0,3.1284,3.1265,3.1257,3.1253,3.1237,3.1209,3.1209,3.1188,3.1188,3.1162,3.1159,3.0999,3.0997,3.0928,3.0891,3.0834,0,0,0,3.1271,3.1186,3.1255,3.1164,3.1237,3.1163,3.121,3.1155,3.1124,3.116,3.0998,3.0995,3.0929,3.0896,3.0838,3.078,3.0754,0,0,3.1151,3.1171,3.1119,3.118,3.1088,3.1171,3.1067,3.1058,3.1074,3.1019,3.1016,3.0922,3.0892,3.0835,3.0621,3.0601,0,0,0,3.1073,3.1036,3.1017,3.0988,3.0982,3.0973,3.0983,3.098,3.0936,3.1043,3.0887,3.087,3.0837,3.081,3.0792,3.0765,3.0983,3.0983,3.0983,3.0868,3.0898,3.0814,3.084,3.0811,3.0825,3.0803,3.0801,3.0836,3.0799,3.0782,3.0649,3.0617,3.0604,3.0575,3.0755,3.0755,3.0755,3.0755,3.0694,3.0644,3.0698,3.0636,3.0667,3.0613,3.0623,3.0651,3.0604,3.0664,3.0636,3.0698,3.0581,3.0557,3.0749,3.075,3.0751,3.0751,3.0752,3.0561,3.0543,3.0544,3.0507,3.0475,3.0504,3.0458,3.0487,3.0514,3.0487,3.0472,3.0473,3.0477,3.0479,3.0478,3.0478,3.0477,3.0477,3.0477,3.0422,3.0426,3.0385,3.0374,3.0361,3.0347,3.0362,3.0348,3.034,3.0365,3.0365,3.0403,3.0565,3.0604,3.047,3.0471,3.0472,3.0472,3.0473,3.023,3.0279,3.0216,3.0203,3.0193,3.0159,3.02,3.017,3.0164,3.014,3.0185,3.0301,3.0322,3.0336,3.0368,3.0181,3.0181,3.0181,3.018,3.0116,3.0132,3.0075,3.0052,3.0033,3.0065,2.999,3.0001,3.0019,3.0016,3.0049,3.0095,3.0108,3.0121,3.014,3.017,2.9936,2.9936,2.9936,2.9999,3.0015,2.9946,2.9969,2.9965,2.9959,2.989,2.986,2.9891,2.9927,3.0015,3.0025,3.01,3.0124,3.0157,3.0186,3.0242,0,0]}]]